Regional Weather Roundup
Issued by NWS

Home | Current Version | Previous Version | Text Only | Print | Product List | Glossary On
Versions: 1 2 3 4 5 6 7 8 9 10 11 12 13 14 15 16 17 18 19 20 21 22 23 24 25 26 27 28 29 30 31 32 33 34 35 36 37 38 39 40 41 42 43 44 45 46 47 48 49 50
000
ASUS43 KLMK 041810
RWRKY
KENTUCKY REGIONAL WEATHER ROUNDUP
NATIONAL WEATHER SERVICE LOUISVILLE KY
100 PM EST WED MAR 04 2015

NOTE "FAIR" INDICATES FEW OR NO CLOUDS BELOW 12,000 FEET
WITH NO SIGNIFICANT WEATHER AND/OR OBSTRUCTIONS TO VISIBILITY.

KYZ001>023-026-027-061>063-070>075-041900-
WESTERN AND SOUTH CENTRAL KENTUCKY

CITY           SKY/WX    TMP DP  RH WIND       PRES   REMARKS
PADUCAH        FRZ RAIN  32  29  88 N17G26    30.08S WCI  21
HENDERSON      CLOUDY    30  25  80 N15       30.11R WCI  19
OWENSBORO      RAIN      35  33  92 N13       30.08S FOG     WCI  26
HOPKINSVILLE   DRIZZLE   36  34  93 N16G22    30.00S WCI  26
BOWLING GREEN  LGT RAIN  43  40  89 N9        29.98F FOG
GLASGOW        LGT RAIN  43  43 100 N7        29.96F
$$

KYZ024-025-028>034-038-045-046-053-041900-
NORTH CENTRAL KENTUCKY

CITY           SKY/WX    TMP DP  RH WIND       PRES   REMARKS
LOUISVILLE/SDF LGT RAIN  37  34  89 N12       30.03S FOG     WCI  29
LOUISVILLE/LOU LGT RAIN  36  32  85 N12       30.03S FOG     WCI  28
FORT KNOX      RAIN      36  34  93 NW10      30.01R WCI  28
$$

KYZ035>037-039>044-047>052-055>060-089>105-041900-
NORTHEAST KENTUCKY

CITY           SKY/WX    TMP DP  RH WIND       PRES   REMARKS
LEXINGTON      LGT RAIN  39  37  92 N10       29.98S WCI  32
COVINGTON      CLOUDY    36  31  82 N8        30.00S WCI  30
FRANKFORT      LGT RAIN  37  34  89 NW9       30.00R FOG     WCI  30
$$

KYZ054-064>069-076>088-106>120-041900-
SOUTHEAST KENTUCKY

CITY           SKY/WX    TMP DP  RH WIND       PRES   REMARKS
JACKSON        RAIN      50  49  96 CALM      29.91S VSB 1/2
LONDON         RAIN      52  50  93 CALM      29.91S FOG
SOMERSET       HVY RAIN  50  50 100 N12       29.94S
MIDDLESBORO    DRIZZLE   49  49 100 CALM      29.92R
MONTICELLO     FOG       54  52  94 CALM      29.95F VSB 3/4
$$



USA.gov is the U.S. government's official web portal to all federal, state and local government web resources and services.